Tracking 29892 objects as of 21-Nov-2024
HD Live streaming from Space Station
objects crossing your sky now

STARLINK-4620

Track STARLINK-4620 now!
10-day predictions


NORAD ID: 53674
Int'l Code: 2022-105AC
Perigee: 569.2 km
Apogee: 571.1 km
Inclination: 97.7 °
Period: 95.9 minutes
Semi major axis: 6941 km
RCS: Unknown
Launch date: August 31, 2022
Source: United States (US)
Launch site: AIR FORCE WESTERN TEST RANGE (AFWTR)
Your satellite tracking list
Your tracking list is empty




NASA's NSSDC Master Catalog

Two Line Element Set (TLE):
1 53674U 22105AC  24326.10579418  .00000488  00000-0  42597-4 0  9998
2 53674  97.6547 204.6898 0001349  86.7472 273.3906 15.01258897122464
Source of the keplerian elements: AFSPC